Theta_e
322 322 323 326 318 316 319 319 321 320 321 322 322 337 338 339 338 338 343 338 330 327 330 340 340 338 337 336 335 332 335 342 343 343 342 338 333 329 326 321 319 318 317 318 319 320 321 321 324
323 322 324 324 316 319 318 320 321 320 323 323 323 337 338 339 345 344 342 333 331 326 331 340 340 339 337 336 335 331 331 333 336 337 336 333 331 325 321 318 318 319 320 320 322 322 323 323 326
322 320 323 318 314 316 319 320 321 322 325 321 324 333 335 337 345 345 340 339 335 327 331 340 340 339 338 337 336 330 330 333 333 333 332 331 327 321 319 319 320 320 320 321 321 322 323 323 325
322 320 323 321 322 319 319 321 323 324 326 323 328 332 334 335 341 341 343 342 339 326 328 339 341 340 338 338 337 329 327 328 332 332 331 328 322 319 319 320 321 321 321 321 321 321 321 322 323
319 319 320 323 323 322 321 323 324 324 323 323 327 332 335 339 342 340 338 334 332 324 329 338 341 340 339 339 337 327 324 323 321 326 327 324 320 319 320 321 322 321 321 320 320 320 319 320 320
316 317 317 320 322 323 323 324 324 323 322 323 326 331 333 339 341 342 339 334 328 323 325 335 341 341 339 338 337 327 322 319 320 325 323 320 319 320 321 322 321 321 321 320 320 320 320 320 319
313 313 315 318 321 321 322 323 322 320 322 322 322 327 330 334 340 341 340 334 326 324 325 332 339 341 339 337 334 327 322 319 321 322 321 319 320 322 322 322 321 321 320 320 320 320 320 319 319
315 311 314 316 319 320 320 321 322 321 321 321 321 326 325 331 338 342 342 336 330 325 325 330 335 340 339 338 333 326 323 320 320 321 320 320 321 322 322 322 321 321 320 320 320 319 319 319 318
314 310 311 315 316 319 319 317 319 320 320 320 320 321 321 327 332 340 343 340 333 329 326 326 330 337 338 337 336 329 324 321 319 320 320 321 321 322 322 321 321 320 320 320 319 319 319 318 318
311 309 312 312 315 316 316 317 317 318 318 318 319 322 321 327 326 337 341 343 340 338 332 326 327 330 336 336 334 330 327 323 320 319 320 321 322 322 322 321 320 320 320 319 319 319 319 319 319
311 311 312 313 315 316 315 315 316 317 316 317 319 320 320 325 327 331 339 338 337 339 335 333 325 328 332 334 334 331 327 324 322 320 320 321 322 322 322 321 321 320 320 319 319 319 319 324 323
311 310 313 314 315 315 314 316 315 316 317 318 318 318 319 321 326 327 329 333 338 341 341 336 331 324 328 333 332 330 330 327 323 321 320 321 321 322 322 321 320 320 320 320 319 320 330 330 333
309 309 312 312 312 312 312 312 313 314 315 316 316 317 318 319 325 327 327 330 337 340 344 343 335 327 324 329 332 331 327 327 326 322 321 321 321 322 321 321 321 320 320 320 320 325 332 334 335
311 310 311 312 312 312 311 312 312 314 315 316 316 317 318 318 323 327 329 331 331 332 337 343 344 333 326 324 327 329 330 328 327 324 322 322 321 321 322 321 321 320 320 320 320 324 330 333 334
311 310 308 310 312 311 311 312 311 314 316 316 317 318 319 323 323 326 327 327 327 327 330 335 344 343 331 325 323 325 327 328 327 325 324 323 322 321 321 321 321 320 320 320 325 329 330 329 332
309 307 309 309 310 312 312 313 312 315 315 316 318 319 319 323 325 323 324 324 325 326 326 327 339 344 342 337 331 326 326 330 328 328 326 326 325 324 322 322 321 321 320 320 322 328 331 331 329
304 307 308 308 309 310 310 310 311 314 313 314 315 317 317 317 318 322 325 325 325 324 324 324 325 329 333 334 335 335 328 326 326 329 329 327 327 326 325 325 323 323 321 320 321 324 328 331 333
307 308 308 309 309 310 309 309 309 313 312 312 313 314 315 316 317 318 320 323 324 323 323 323 323 324 328 339 341 340 334 330 327 327 329 329 328 327 326 325 327 324 322 321 320 324 327 338 337
308 308 308 309 310 310 309 309 309 311 312 311 312 312 314 316 317 317 317 319 322 321 322 323 323 323 326 332 340 345 344 338 330 328 328 330 327 325 324 324 323 326 322 321 324 334 338 339 333
309 309 309 309 310 308 309 310 309 309 310 312 313 314 315 314 315 316 317 318 318 319 321 321 321 324 325 326 336 344 344 339 333 328 328 328 332 337 336 332 324 322 323 329 334 329 338 340 337
309 309 310 310 311 310 310 310 310 310 310 313 314 314 314 315 315 315 317 317 318 318 318 320 320 324 326 325 336 344 342 339 336 338 338 335 331 329 332 339 335 331 330 334 340 337 336 338 334
310 310 310 311 310 311 310 312 310 309 309 310 313 314 314 314 314 314 315 318 319 318 319 319 321 325 327 326 334 342 342 341 340 340 338 337 338 339 339 335 336 339 340 341 342 340 333 332 332
314 314 314 314 312 309 310 308 311 309 309 309 309 313 314 314 314 315 315 315 315 320 320 322 325 328 331 334 337 342 343 341 341 340 341 340 340 340 338 339 342 340 339 335 339 339 332 330 330
315 315 313 307 306 310 312 309 312 312 309 309 309 311 313 316 316 316 316 316 316 316 322 325 328 330 334 335 335 332 334 336 334 335 336 338 340 338 339 338 340 340 339 335 331 334 335 331 330
314 313 314 315 310 316 310 308 311 311 310 309 310 313 314 315 315 316 315 316 316 315 318 326 328 327 324 322 321 319 318 317 321 328 333 338 338 335 339 338 337 339 339 339 338 337 336 336 336
316 315 314 315 316 315 315 314 313 312 312 313 314 314 315 315 315 316 316 316 315 315 315 321 324 321 320 319 318 317 317 316 316 315 315 319 327 335 337 337 335 336 337 336 337 337 336 334 334
315 316 314 317 318 319 315 314 313 312 313 313 313 313 315 315 315 315 316 314 313 314 315 319 324 322 320 318 317 317 317 316 315 314 315 318 320 323 326 332 334 334 335 334 335 335 335 334 334
315 313 317 318 319 316 316 314 315 314 314 313 312 313 314 314 316 316 315 317 318 317 318 322 325 321 318 317 317 316 315 314 314 314 314 314 315 314 314 315 317 320 323 327 329 330 331 332 332
312 314 314 316 317 318 318 316 314 316 314 313 312 313 313 315 315 316 316 316 316 318 320 324 320 318 318 316 315 314 314 314 314 314 314 314 315 315 314 314 314 314 314 314 315 317 319 323 328
311 311 311 308 306 310 307 312 314 315 314 311 312 311 311 310 314 315 316 316 316 316 317 319 319 317 317 315 315 315 315 315 315 315 315 315 315 315 316 317 316 316 315 316 316 316 317 317 316
Wind_Speed
12 11 11 5 3 4 2 5 2 6 6 6 10 4 3 1 4 4 4 25 22 27 34 34 33 31 28 26 24 23 25 27 26 23 20 16 15 15 15 16 17 17 17 17 16 14 13 13 13
14 10 5 2 4 1 3 3 1 3 13 18 6 4 2 1 1 1 12 24 23 29 34 35 33 31 28 26 24 22 24 25 25 23 20 17 16 16 17 18 18 18 17 17 15 14 12 12 12
12 9 2 4 3 5 4 4 2 7 15 10 3 2 1 2 3 8 14 16 19 29 32 34 33 30 28 25 23 22 23 24 24 22 20 19 19 19 20 20 19 18 17 16 14 13 12 10 10
6 3 3 4 6 6 3 2 5 7 10 8 6 1 1 2 2 5 16 11 19 29 31 33 32 30 28 26 23 23 25 25 24 23 22 22 22 22 21 20 19 18 16 15 14 12 10 9 8
6 1 1 2 5 4 4 10 9 4 9 18 9 1 1 3 11 10 12 13 20 28 31 33 33 31 29 27 24 24 25 25 26 26 26 24 24 23 22 20 19 17 15 14 12 11 9 7 6
4 3 2 5 7 3 3 6 8 4 13 19 12 5 2 7 9 10 12 15 23 24 29 31 32 32 30 28 26 26 26 27 28 29 29 28 26 24 23 20 18 16 14 13 11 9 8 6 4
6 4 5 4 4 7 3 1 4 3 9 7 22 3 5 8 11 8 10 15 22 24 28 31 32 32 30 29 28 28 29 30 31 31 30 29 28 26 23 20 18 15 13 11 9 7 5 4 2
5 4 4 5 5 12 5 2 5 8 6 20 9 1 8 11 14 13 11 15 19 23 27 30 32 32 32 31 29 30 30 31 31 31 31 30 28 26 23 20 17 15 12 10 8 6 4 3 1
6 3 4 7 7 10 2 4 7 12 12 13 16 20 25 16 16 20 19 20 23 24 27 30 32 34 33 32 30 29 29 30 32 32 31 30 28 25 23 20 18 15 13 10 8 6 3 1 2
4 4 7 6 5 6 7 8 13 7 20 14 26 22 20 13 19 25 26 26 27 28 30 31 33 35 35 34 33 32 31 31 33 33 32 30 28 25 22 20 18 15 13 11 8 5 3 3 4
4 4 4 3 7 12 5 8 17 5 18 13 19 24 17 12 18 19 25 26 26 30 31 30 33 36 37 37 36 36 35 34 33 32 32 31 29 27 24 21 19 17 15 12 8 5 5 6 4
1 6 7 11 19 20 10 21 15 19 29 30 26 27 29 18 23 21 21 26 25 29 31 32 33 36 37 39 39 38 37 37 36 35 34 33 31 28 26 23 20 18 15 11 8 6 4 2 2
4 5 13 16 17 19 25 14 17 32 25 31 31 30 28 26 27 24 23 23 25 23 29 31 35 37 38 41 41 41 40 39 39 38 37 35 33 30 27 24 21 19 16 13 10 7 5 4 3
2 4 8 7 11 8 7 11 12 10 13 23 26 26 27 26 28 29 27 25 24 23 24 28 33 37 39 38 40 42 42 42 41 40 38 36 33 32 29 27 24 21 17 13 12 10 9 8 7
3 3 7 4 6 5 4 10 9 17 12 19 25 24 24 19 28 32 31 28 26 22 22 22 26 32 33 34 37 41 44 46 45 42 38 35 33 31 27 26 24 21 17 15 14 11 11 10 11
4 4 3 5 4 7 6 14 8 11 14 17 21 23 21 18 23 32 29 26 26 25 22 19 22 28 31 33 36 40 43 45 43 42 38 36 33 30 28 27 26 22 19 17 18 17 14 13 13
5 2 2 7 6 5 5 6 6 25 16 20 22 25 25 29 27 27 32 30 30 27 24 25 25 27 30 32 34 38 41 42 43 41 41 39 35 33 30 29 27 23 24 20 21 21 18 16 14
4 3 3 4 5 4 10 15 9 24 17 20 21 23 27 30 33 33 30 32 34 33 30 27 27 30 33 36 38 39 39 40 38 39 38 35 34 32 31 31 29 24 25 25 24 22 18 18 14
3 3 5 9 14 5 9 14 12 19 21 21 25 21 23 27 33 36 35 32 33 32 36 34 33 33 34 34 35 37 40 38 34 34 34 32 31 33 34 34 34 29 28 30 22 18 16 18 12
5 5 8 7 11 6 8 13 10 7 10 24 22 18 15 20 26 32 35 34 32 32 35 37 36 39 37 35 32 34 36 34 31 32 32 32 29 27 25 32 35 34 30 30 25 23 16 19 14
4 4 5 7 7 4 5 13 6 6 10 20 19 17 12 12 19 25 28 35 37 37 36 39 39 39 37 33 32 33 32 30 29 29 33 30 28 36 35 28 28 28 33 35 30 21 13 14 14
4 5 6 6 4 5 2 18 9 4 10 9 23 23 19 18 20 19 18 21 26 32 33 37 42 41 39 36 34 35 36 34 29 28 30 32 29 26 27 34 32 33 34 34 31 20 22 24 16
7 3 4 5 7 4 2 5 2 2 7 9 9 22 26 22 20 23 21 22 23 26 24 29 35 35 35 36 35 34 32 29 30 29 27 27 31 31 28 33 38 35 35 29 35 26 29 36 41
1 2 3 2 2 9 8 8 20 17 7 5 7 13 17 22 24 28 30 26 24 28 33 34 37 37 35 32 29 28 29 30 31 31 31 31 30 30 29 34 35 33 33 46 29 35 37 42 46
4 5 4 4 1 9 4 5 16 9 5 8 8 12 10 12 21 28 31 35 31 32 36 39 40 40 37 34 31 29 25 24 25 25 26 30 31 34 34 31 33 32 39 34 29 29 30 26 26
1 5 4 6 6 14 6 7 15 2 3 10 14 5 6 9 11 19 28 33 35 32 38 43 44 42 39 36 30 26 21 17 17 19 20 19 22 26 30 33 31 27 25 26 26 24 24 24 24
0 3 2 3 7 6 5 9 13 5 9 13 3 5 13 16 17 20 19 18 25 26 37 47 48 42 36 29 23 17 16 16 15 15 15 14 14 16 20 21 24 29 32 31 33 31 30 28 24
3 4 1 1 4 6 4 4 7 9 8 10 10 11 13 9 18 21 24 10 7 19 30 45 40 35 29 23 18 15 14 12 12 13 14 14 14 14 14 13 11 12 14 16 18 19 20 21 21
1 1 2 1 3 4 4 3 5 5 5 7 8 14 15 17 13 9 14 19 16 1 19 32 32 29 24 18 16 17 14 12 11 10 11 11 11 10 11 12 11 11 11 12 14 14 16 18 19
4 6 5 4 6 4 3 8 7 2 8 8 17 22 28 26 18 22 20 11 14 14 6 15 26 28 24 23 23 16 16 14 15 13 14 13 11 11 8 7 7 6 6 8 9 11 12 16 19
Wind_Direction
311 319 330 334 36 62 261 248 268 335 341 288 304 235 172 122 179 214 277 170 173 178 173 173 174 174 175 177 177 175 171 167 168 170 168 165 157 153 148 145 142 136 133 129 124 118 115 116 118
302 314 330 59 90 347 258 249 147 291 304 316 293 215 148 25 57 166 156 163 172 178 174 174 176 176 177 178 179 179 175 174 175 174 171 168 161 156 152 149 143 139 135 130 126 123 120 118 117
293 311 310 98 125 212 219 194 220 308 350 325 296 57 74 112 40 145 165 165 174 180 176 176 178 180 179 180 182 180 177 176 176 174 171 169 164 162 158 150 146 144 139 134 132 129 128 127 126
270 283 64 109 216 256 248 28 345 350 341 350 320 357 80 69 99 127 168 177 179 181 179 179 180 182 183 184 187 183 180 178 177 176 175 171 167 165 160 155 152 149 144 140 138 135 133 128 125
233 217 94 219 252 245 245 295 349 338 320 331 321 195 53 103 135 138 153 171 181 182 182 182 182 184 186 187 190 187 182 180 177 175 173 172 171 168 163 162 158 154 150 145 141 136 136 131 127
174 138 107 225 253 238 290 297 338 4 346 336 356 328 138 152 156 159 170 174 181 187 185 185 185 186 189 191 192 189 184 181 176 174 173 173 173 171 169 166 164 160 155 150 146 146 143 136 134
147 113 209 214 255 275 223 302 327 73 336 319 328 268 270 194 169 160 172 181 184 191 189 188 189 190 192 194 194 189 184 180 178 176 176 177 175 174 172 171 169 167 163 158 158 159 149 146 149
186 112 186 218 210 263 263 274 300 345 302 315 339 68 308 257 210 184 180 187 192 195 196 195 193 194 195 197 195 190 185 182 181 182 180 180 179 178 176 176 175 174 172 169 171 170 165 169 168
175 96 213 209 190 239 268 344 302 305 279 297 307 306 314 284 208 199 190 192 199 202 202 201 200 197 199 199 197 195 191 187 185 185 186 186 185 184 183 182 181 182 181 182 187 189 193 227 311
157 161 220 209 217 274 290 292 306 312 292 284 299 305 328 266 220 203 199 198 199 203 206 205 204 203 201 200 200 198 196 195 192 191 191 190 190 191 190 190 189 191 192 195 202 213 240 276 295
186 219 202 245 250 264 263 277 282 269 279 265 287 302 319 237 212 215 213 209 208 206 210 208 210 207 204 204 203 202 201 199 199 198 197 195 195 196 198 197 197 200 205 208 214 238 276 278 267
204 235 224 252 256 260 265 264 257 249 259 279 284 288 294 282 226 215 227 225 219 218 215 214 214 213 208 208 207 207 206 204 204 203 202 201 202 202 202 204 204 208 215 219 231 251 261 228 170
194 247 260 269 275 267 271 259 260 262 268 282 282 281 281 267 242 219 222 212 210 212 219 220 218 216 213 212 212 211 212 211 210 207 207 206 206 207 209 210 212 217 223 230 238 236 237 232 235
237 266 283 295 284 261 240 252 235 279 286 281 278 274 273 267 234 222 211 207 205 210 214 222 223 221 218 218 218 217 217 217 216 215 213 213 212 212 216 216 217 222 231 241 249 247 245 255 258
278 293 329 258 266 234 238 284 235 275 277 269 271 265 266 259 226 215 212 205 205 203 206 204 217 225 224 225 227 227 225 222 221 221 219 220 222 221 219 229 229 233 234 243 252 251 254 260 276
7 47 32 292 334 276 173 258 304 310 268 260 268 266 262 248 229 218 209 209 211 205 206 207 209 220 222 224 228 232 233 228 228 226 223 226 228 230 232 235 236 240 244 251 262 265 264 270 278
5 255 333 317 299 290 186 281 290 309 287 277 275 273 277 280 263 236 226 221 218 216 217 215 220 219 221 225 231 232 235 234 232 229 227 226 228 233 236 239 245 249 247 252 259 264 273 276 287
268 299 261 254 275 213 274 277 268 289 281 269 271 268 270 276 268 261 244 233 225 221 219 222 223 228 230 231 232 233 234 236 236 234 233 235 238 236 239 242 246 245 256 251 255 264 274 279 288
231 232 245 262 272 234 259 269 269 269 285 286 282 278 282 280 272 258 251 244 232 224 220 221 227 229 226 233 231 233 232 234 234 232 229 230 233 238 239 242 244 240 247 247 246 252 265 274 293
230 261 274 277 263 178 269 264 239 245 252 265 274 287 295 288 273 252 247 246 242 237 229 221 227 227 228 231 234 234 232 231 231 230 230 233 235 239 237 245 238 238 232 242 234 245 251 269 297
248 202 253 240 304 296 263 274 285 238 246 261 269 271 279 300 296 263 253 249 242 236 235 230 227 226 226 228 226 227 229 232 222 222 227 235 241 242 245 245 237 242 238 224 228 216 229 264 304
269 227 254 277 349 281 106 288 267 223 240 250 259 263 272 293 291 281 275 260 246 239 238 235 225 221 220 223 224 224 226 229 228 224 220 229 236 243 251 249 243 235 236 235 233 226 246 266 274
237 323 300 279 271 282 180 276 268 188 246 248 262 267 286 291 295 290 284 272 266 249 240 228 223 224 223 224 227 229 233 237 239 240 232 231 234 245 251 248 250 244 238 243 254 250 249 262 261
301 349 299 59 138 258 252 197 275 264 233 244 253 267 283 293 292 289 283 271 256 246 233 222 219 219 218 220 221 224 227 233 238 242 240 234 234 239 247 248 248 241 246 232 228 238 250 248 257
68 46 328 320 313 266 187 214 249 275 196 234 254 282 307 308 293 285 279 267 254 234 232 221 213 213 211 210 214 214 214 217 226 232 238 235 231 237 239 239 242 253 245 247 242 238 242 257 264
353 152 182 261 265 290 333 243 254 29 245 276 270 198 63 13 336 308 288 263 258 244 229 223 210 206 205 204 202 205 211 223 231 234 237 235 232 232 235 239 243 245 241 247 256 254 255 264 268
222 183 204 263 249 269 238 285 301 45 28 1 88 306 69 60 39 19 340 275 249 244 231 222 209 205 202 199 197 206 224 234 244 238 228 219 212 212 216 226 235 242 246 248 252 257 261 266 274
164 157 182 260 277 255 232 268 251 354 0 3 4 328 318 339 57 40 30 10 279 233 229 212 200 196 193 196 207 221 222 212 209 213 218 218 217 215 213 215 218 223 231 236 244 252 258 263 264
156 129 95 203 239 290 310 284 332 294 320 318 303 334 333 318 333 11 11 19 49 52 218 193 190 192 198 204 210 199 196 198 201 213 213 205 201 205 211 215 219 227 236 244 251 257 262 267 268
168 189 163 132 278 252 211 269 230 311 313 344 331 346 354 359 349 328 327 333 358 33 91 212 202 197 199 202 201 201 203 210 217 221 216 217 219 213 195 189 190 206 233 250 265 275 281 285 282